Regional Weather Roundup
Issued by NWS Burlington, VT

Home | Current Version | Previous Version | Text Only | Print | Product List | Glossary On
Versions: 1 2 3 4 5 6 7 8 9 10 11 12 13 14 15 16 17 18 19 20 21 22 23 24 25 26 27 28 29 30 31 32 33 34 35 36 37 38 39 40 41 42 43 44 45 46 47 48 49 50
000
ASUS41 KBTV 020730
RWRBTV
VERMONT REGIONAL WEATHER ROUNDUP
NATIONAL WEATHER SERVICE BURLINGTON VT
300 AM EDT THU JUL 02 2015

NOTE: "FAIR" INDICATES FEW OR NO CLOUDS BELOW 12,000 FEET WITH NO
SIGNIFICANT WEATHER AND/OR OBSTRUCTIONS TO VISIBILITY.

* THESE REPORTS ARE NOT UNDER NWS QUALITY CONTROL AND/OR DO NOT
  REPORT WEATHER SUCH AS PRECIPITATION AND FOG.

VTZ001>019-020800-
_____VERMONT_____


CITY           SKY/WX    TMP DP  RH WIND       PRES   REMARKS
BURLINGTON     CLEAR     61  52  72 NW9       29.81R
MONTPELIER     CLOUDY    58  56  93 CALM      29.86R
MORRISVILLE    MOCLDY    63  53  70 W3        29.81R
ST. JOHNSBURY*   N/A     59  56  89 MISG      29.78R
RUTLAND*       CLEAR     61  54  77 W6        29.85S
SPRINGFIELD    CLEAR     61  55  81 NW6       29.82S
BENNINGTON     CLEAR     60  55  83 SW7       29.87S
SUTTON*          N/A     55 N/A N/A MISG        N/A
MT. MANSFIELD*   N/A     46 N/A N/A N24         N/A

_____LAKE CHAMPLAIN_____


CITY           SKY/WX    TMP DP  RH WIND       PRES   REMARKS
BURTON ISLAND*   N/A     61  54  77 W17         N/A
COLCHESTER RF*   N/A     61  54  77 NW12        N/A
DIAMOND ISL*     N/A     64  55  72 W9          N/A

$$

NYZ007-026>031-035-052-083-020800-
_____NORTHERN NEW YORK_____


CITY           SKY/WX    TMP DP  RH WIND       PRES   REMARKS
PLATTSBURGH    MOCLDY    59  52  77 VRB3      29.82R
SARANAC LAKE   CLOUDY    52  50  93 W10       29.86R
MASSENA        MOCLDY    56  50  80 SW8       29.86R
OGDENSBURG*    CLEAR     55  52  88 SW5       29.88S
POTSDAM*       MOCLDY    55  54  94 W8        29.88R
WATERTOWN      CLOUDY    56  54  93 CALM      29.89S
FT DRUM        PTCLDY    54  54  99 NW1       29.89R
ALBANY         CLEAR     61  56  83 W5        29.86F
GLENS FALLS    CLEAR     63  56  78 SW6       29.84R

$$
NHZ002-005-011-020800-
_____NEW HAMPSHIRE_____


CITY           SKY/WX    TMP DP  RH WIND       PRES   REMARKS
LEBANON        CLEAR     61  55  81 S7        29.80R
KEENE          CLEAR     57  54  88 CALM      29.84S
MT WASHINGTON  FOG       41  41 100 W56G63      N/A  VSB 0   WCI  26
PLYMOUTH       FAIR      57  57 100 CALM      29.79R
WHITEFIELD     CLOUDY    59  55  87 SW3       29.80R

$$

_____REGIONAL QUEBEC LOCATIONS_____


CITY           SKY/WX    TMP DP  RH WIND       PRES   REMARKS
MONTREAL       CLOUDY    59  54  82 SW14G21   29.78R
QUEBEC CITY    CLOUDY    57  55  94 W22G29    29.60R
SHERBROOKE     MOCLDY    57  54  88 W16G30    29.74R

_____REGIONAL ONTARIO LOCATIONS_____


CITY           SKY/WX    TMP DP  RH WIND       PRES   REMARKS
OTTAWA         PTCLDY    54  50  87 W12       29.86R

______KEY______
VSB  - VISIBILITY IN MILES
WCI  - WIND CHILL INDEX
HX   - HEAT INDEX
$$
NNNN


USA.gov is the U.S. government's official web portal to all federal, state and local government web resources and services.